[[{"header":{"parameterUnit":"m.s-1","parameterCategory":1,"la1":30.2991,"la2":30.254,"lo1":-89.0895,"lo2":-89.0444,"dy":0.0017,"dx":0.0017,"nx":28,"ny":28,"refTime":"2025-09-11T09:00:00:Z","depth":0,"parameterNumber":2,"parameterNumberName":"U-component_of_WINDS"},"data":[0,0,0,0,0,0,0,0,0,0,0,0,0,0,0,0,0,0,0,0,0,0,0,0,0,0,0,0,0,0,0,0,0,0,0,0,0,0,0,0,0,0,0,0,0,0,0,0,0,0,0,0,0,0,0,0,0,0,0.4019,0.402,0,0.4134,0.4135,0.4136,0.4151,0.415,0.4149,0.4148,0.4268,0.4272,0.4277,0,0,0,0,0,0,0,0,0,0,0,0,0,0.3814,0.3818,0.4019,0.4021,0.4022,0.4134,0.4135,0.4137,0.4151,0.415,0.4149,0.4147,0.4267,0.4272,0.4277,0,0,0,0,0,0,0,0,0,0,0,0,0,0.3914,0.3819,0.4019,0.4043,0.4046,0.4133,0.4135,0.4137,0.4152,0.415,0.4148,0.4147,0.4265,0.4271,0.4278,0.435,0,0,0.4297,0.43,0,0,0,0,0,0,0,0,0.3908,0.3921,0.4038,0.4041,0.4045,0.4126,0.4107,0.4209,0.4152,0.4112,0.4148,0.4146,0.4223,0.4232,0.4258,0.4356,0.4361,0.4298,0.4301,0.4304,0.4306,0,0,0,0,0,0,0,0.3901,0.3916,0.4065,0.4039,0.4044,0.4048,0.406,0.4127,0.4175,0.4115,0.4116,0.4129,0.4224,0.4251,0.4261,0.4363,0.4297,0.4303,0.4307,0.4309,0.4525,0.4526,0,0,0,0,0,0,0.389,0.3911,0.4061,0.4068,0.3971,0.4053,0.4067,0.4102,0.4174,0.4184,0.4131,0.413,0.4241,0.4253,0.4265,0.4353,0.4304,0.431,0.4314,0.4523,0.4525,0.4527,0,0,0,0,0,0,0.3885,0.3903,0.4056,0.399,0.401,0.4058,0.4098,0.4105,0.4132,0.4186,0.4195,0.4149,0.4241,0.4256,0.4328,0.4358,0.4313,0.4319,0.452,0.4523,0.4526,0.4531,0,0,0,0,0,0,0.3879,0.3901,0.3929,0.399,0.4013,0.4117,0.41,0.4109,0.4143,0.4143,0.4206,0.4215,0.424,0.4319,0.4335,0.4365,0.4324,0.4518,0.4522,0.4525,0.4528,0.4534,0.4538,0,0,0,0,0,0.3872,0.3927,0.393,0.3948,0.4049,0.4119,0.4132,0.4159,0.4145,0.4174,0.4208,0.4213,0.4352,0.4326,0.4344,0.4377,0.4516,0.4521,0.4525,0.4526,0.4533,0.4538,0,0,0,0,0,0,0.3869,0.3935,0.394,0.4016,0.4062,0.4121,0.4158,0.4165,0.4217,0.4214,0.4247,0.4261,0.4331,0.4362,0.4332,0.445,0.4433,0.4441,0.4428,0.4434,0.4439,0.443,0.4329,0,0,0,0,0,0.3877,0.3928,0.3984,0.4046,0.4068,0.4109,0.4141,0.4157,0.4206,0.4226,0.4266,0.4314,0.4368,0.4403,0.4456,0.4533,0.4547,0.4565,0.457,0.4573,0.458,0.4621,0.463,0.4541,0.4541,0.4541,0,0,0.3895,0.3937,0.3968,0.4046,0.4083,0.4135,0.4125,0.4181,0.422,0.4235,0.4305,0.4336,0.4391,0.4466,0.4501,0.4493,0.4607,0.4579,0.4581,0.4586,0.4626,0.4635,0.4642,0.4544,0.4543,0.4543,0,0,0.3953,0.3991,0.4046,0.4083,0.4139,0.4165,0.4178,0.4237,0.4257,0.4328,0.4339,0.4387,0.448,0.4518,0.455,0.4621,0.4627,0.4638,0.4663,0.4703,0.471,0.4716,0.474,0.4749,0.4644,0.4644,0.4644,0,0.3968,0.4046,0.4073,0.4128,0.4162,0.4176,0.4232,0.4267,0.4338,0.4361,0.4351,0.4467,0.4506,0.4589,0.4606,0.4631,0.4647,0.463,0.4707,0.4713,0.472,0.4743,0.4752,0.4645,0.4645,0.4645,0.4645,0,0.4061,0.4115,0.4153,0.4219,0.4258,0.4313,0.4348,0.4384,0.4397,0.4424,0.4495,0.4542,0.4604,0.4625,0.4639,0.471,0.4703,0.47,0.4683,0.4728,0.475,0.476,0.4646,0.4646,0.4646,0.4645,0,0,0.4121,0.42,0.4214,0.4243,0.4305,0.4348,0.4404,0.4463,0.4492,0.4541,0.4587,0.4665,0.4662,0.4698,0.4717,0.4752,0.4803,0.4744,0.4746,0.4752,0.4882,0.4883,0.4893,0.4808,0.481,0.4811,0.4877,0,0.4186,0.4284,0.4309,0.4393,0.4442,0.4456,0.4505,0.4548,0.4575,0.4622,0.4652,0.4706,0.4699,0.472,0.4756,0.4789,0.4829,0.4785,0.4852,0.4854,0.4836,0.4905,0.4907,0.4966,0.4886,0.4887,0.4889,0,0.4274,0.4322,0.441,0.4464,0.4486,0.4529,0.4584,0.4629,0.4678,0.4696,0.4735,0.475,0.4808,0.4788,0.4869,0.4838,0.4866,0.4887,0.489,0.4897,0.4873,0.4912,0.4986,0.4994,0.4903,0.4902,0.4901,0,0.4306,0.4394,0.4457,0.4483,0.4548,0.4577,0.4606,0.4654,0.4687,0.4736,0.4758,0.4813,0.4844,0.4886,0.4916,0.4899,0.4993,0.4976,0.5009,0.5008,0.5027,0.5025,0.5106,0.5048,0.5048,0.5048,0.5047,0,0.4375,0.4428,0.4473,0.4512,0.4571,0.46,0.4659,0.4688,0.473,0.4775,0.4791,0.4833,0.487,0.4917,0.494,0.5002,0.5016,0.5032,0.5037,0.503,0.5027,0.5048,0.5044,0.505,0.5049,0.5049,0.5049,0,0.4421,0.4453,0.4523,0.4579,0.4594,0.4635,0.4683,0.4722,0.4749,0.4805,0.482,0.4864,0.4919,0.4953,0.5025,0.504,0.5108,0.5113,0.5091,0.5093,0.5123,0.5119,0.5219,0.5233,0.5167,0.5167,0.5168,0,0.4462,0.4503,0.4562,0.4593,0.4621,0.4671,0.4705,0.4735,0.4769,0.4828,0.4859,0.4915,0.4962,0.5051,0.5089,0.5143,0.5148,0.5179,0.5157,0.5147,0.5147,0.5144,0.5147,0.5183,0.5183,0.5184,0.5184,0,0.4531,0.4544,0.4592,0.4644,0.4684,0.4727,0.477,0.4795,0.4832,0.487,0.4927,0.4963,0.5034,0.509,0.5147,0.5178,0.5187,0.5191,0.5201,0.5193,0.5178,0.5185,0.51,0.5189,0.5188,0.5188,0.5188,0.5187,0.4575,0.4611,0.4658,0.471,0.4745,0.4785,0.4823,0.4854,0.4902,0.4962,0.4977,0.5036,0.5083,0.5161,0.5192,0.5239,0.5234,0.5249,0.5253,0.5256,0.5255,0.5172,0.525,0.525,0.525,0.5249,0.5249,0,0.4643,0.4673,0.4721,0.478,0.482,0.4825,0.4873,0.4907,0.4958,0.5001,0.5046,0.5111,0.5165,0.5206,0.5261,0.5291,0.5296,0.5304,0.5302,0.5308,0.5257,0.5242,0.5298,0.5298,0.5298,0.5298,0.5298,0.5298,0.4683,0.4744,0.4763,0.4841,0.4872,0.4929,0.4955,0.4992,0.5026,0.5097,0.5141,0.5168,0.521,0.5268,0.5318,0.5328,0.5347,0.5354,0.5366,0.5317,0.5312,0.5307,0.5293,0.5358,0.5359,0.5412,0.5413,0.5413]},{"header":{"parameterUnit":"m.s-1","parameterCategory":1,"la1":30.2991,"la2":30.254,"lo1":-89.0895,"lo2":-89.0444,"dy":0.0017,"dx":0.0017,"nx":28,"ny":28,"refTime":"2025-09-11T09:00:00:Z","depth":0,"parameterNumber":3,"parameterNumberName":"V-component_of_WINDS"},"data":[0,0,0,0,0,0,0,0,0,0,0,0,0,0,0,0,0,0,0,0,0,0,0,0,0,0,0,0,0,0,0,0,0,0,0,0,0,0,0,0,0,0,0,0,0,0,0,0,0,0,0,0,0,0,0,0,0,0,1.7691,1.7691,0,1.7645,1.7644,1.7643,1.7575,1.7574,1.7573,1.7572,1.7525,1.7525,1.7525,0,0,0,0,0,0,0,0,0,0,0,0,0,1.772,1.772,1.7691,1.7691,1.769,1.7645,1.7644,1.7643,1.7576,1.7574,1.7573,1.7571,1.7525,1.7525,1.7525,0,0,0,0,0,0,0,0,0,0,0,0,0,1.7694,1.772,1.7691,1.7651,1.7646,1.7645,1.7644,1.7643,1.7576,1.7574,1.7572,1.7571,1.7525,1.7525,1.7524,1.7559,0,0,1.7524,1.7524,0,0,0,0,0,0,0,0,1.7696,1.7693,1.7657,1.7653,1.7649,1.7614,1.7637,1.7615,1.7576,1.7603,1.7572,1.757,1.7556,1.7553,1.7548,1.7557,1.7555,1.7524,1.7524,1.7524,1.7524,0,0,0,0,0,0,0,1.7697,1.7695,1.7673,1.7657,1.7652,1.7634,1.7629,1.7632,1.759,1.76,1.7595,1.7591,1.7553,1.7549,1.7547,1.7554,1.7524,1.7524,1.7523,1.7523,1.7584,1.7586,0,0,0,0,0,0,1.7705,1.7697,1.7674,1.7671,1.7668,1.7635,1.7629,1.7627,1.759,1.7582,1.7592,1.7588,1.755,1.7547,1.7545,1.7579,1.7524,1.7523,1.7523,1.7583,1.7585,1.7587,0,0,0,0,0,0,1.7706,1.7704,1.7676,1.7682,1.7678,1.7637,1.7635,1.7627,1.7622,1.7584,1.7576,1.7595,1.7548,1.7545,1.7555,1.7577,1.7523,1.7523,1.7581,1.7583,1.7586,1.7651,0,0,0,0,0,0,1.7707,1.7705,1.7718,1.7683,1.7678,1.7688,1.7636,1.7627,1.7622,1.7615,1.7584,1.7577,1.7547,1.7556,1.7555,1.7576,1.7523,1.7578,1.7582,1.7585,1.7647,1.7656,1.7663,0,0,0,0,0,1.7709,1.7739,1.7719,1.7716,1.7693,1.7689,1.7686,1.7649,1.7624,1.7636,1.7611,1.7578,1.7575,1.7557,1.7556,1.7577,1.7577,1.7581,1.7585,1.7643,1.7654,1.7663,0,0,0,0,0,0,1.7778,1.7734,1.7711,1.7731,1.7714,1.7678,1.7692,1.7663,1.7653,1.7647,1.7603,1.7597,1.7611,1.7596,1.7576,1.7606,1.7571,1.7575,1.7616,1.7626,1.7634,1.7636,1.7523,0,0,0,0,0,1.7796,1.7796,1.7758,1.7779,1.7772,1.7734,1.7731,1.7704,1.7685,1.7677,1.7653,1.7636,1.763,1.7627,1.7621,1.7645,1.7635,1.7658,1.7667,1.7674,1.7677,1.7685,1.7694,1.7599,1.7599,1.7599,0,0,1.7832,1.7808,1.7811,1.7792,1.7776,1.7777,1.7728,1.7732,1.7731,1.7678,1.7684,1.7666,1.7644,1.766,1.7666,1.7647,1.7701,1.7679,1.7685,1.7684,1.769,1.7699,1.7707,1.7602,1.7602,1.7601,0,0,1.7898,1.7881,1.7895,1.788,1.7855,1.7829,1.7833,1.78,1.7785,1.7792,1.7751,1.775,1.7742,1.7727,1.7718,1.7776,1.7744,1.7775,1.7817,1.7826,1.7833,1.7839,1.7857,1.7864,1.7779,1.7779,1.7779,0,1.7946,1.7945,1.7907,1.7911,1.7903,1.7855,1.7868,1.7855,1.783,1.7825,1.7804,1.7791,1.7773,1.7783,1.7797,1.7793,1.7794,1.7777,1.7835,1.7841,1.7846,1.7862,1.7869,1.7782,1.7782,1.7782,1.7781,0,1.8004,1.8005,1.8019,1.7994,1.7988,1.7998,1.7959,1.7957,1.7931,1.7907,1.7912,1.7889,1.7874,1.7876,1.7851,1.7881,1.787,1.7843,1.7806,1.7859,1.7874,1.788,1.7788,1.7786,1.7785,1.7784,0,0,1.8112,1.8065,1.807,1.8057,1.8026,1.8025,1.8032,1.8017,1.8015,1.7999,1.8002,1.7996,1.7969,1.796,1.7933,1.794,1.7983,1.7912,1.791,1.7923,1.8012,1.803,1.8038,1.7963,1.7964,1.7965,1.8013,0,1.817,1.8177,1.8141,1.8158,1.8156,1.8109,1.8114,1.8095,1.8072,1.8067,1.8042,1.8037,1.8005,1.7998,1.8004,1.7977,1.8,1.7974,1.7963,1.7963,1.7968,1.8046,1.8066,1.8112,1.8018,1.8019,1.802,0,1.8238,1.8224,1.824,1.8205,1.8202,1.8208,1.819,1.8186,1.8163,1.8145,1.8133,1.8102,1.8104,1.807,1.8071,1.8054,1.8048,1.8034,1.8035,1.803,1.7993,1.8041,1.8126,1.8132,1.8029,1.8028,1.8028,0,1.831,1.8296,1.8303,1.8294,1.8254,1.8258,1.8242,1.8217,1.8209,1.8194,1.8188,1.8174,1.8166,1.8155,1.812,1.8099,1.8124,1.8088,1.8108,1.8109,1.8113,1.8113,1.8196,1.8114,1.8114,1.8114,1.8114,0,1.8377,1.8388,1.8334,1.8339,1.8348,1.8307,1.8318,1.8297,1.8275,1.8273,1.8233,1.8232,1.8186,1.818,1.8153,1.8156,1.8153,1.8138,1.813,1.814,1.8141,1.8133,1.8128,1.8116,1.8116,1.8115,1.8115,0,1.8459,1.8425,1.8428,1.839,1.838,1.8389,1.8356,1.8357,1.8332,1.833,1.8327,1.8287,1.8277,1.8241,1.8223,1.8204,1.8215,1.8202,1.8223,1.8217,1.8237,1.8235,1.8316,1.8323,1.824,1.8241,1.8242,0,1.8502,1.8509,1.8471,1.8466,1.8451,1.8445,1.8437,1.8396,1.8389,1.8362,1.8366,1.8353,1.8339,1.8326,1.8294,1.828,1.8264,1.8293,1.8261,1.827,1.826,1.8259,1.8258,1.8299,1.8301,1.8301,1.8302,0,1.8581,1.8563,1.8553,1.8536,1.8527,1.8512,1.8494,1.8493,1.8447,1.8441,1.843,1.842,1.84,1.8386,1.8366,1.8348,1.8317,1.8313,1.8316,1.8325,1.8335,1.8327,1.8238,1.8311,1.831,1.8309,1.8309,1.8308,1.8643,1.8646,1.8618,1.8607,1.859,1.8574,1.8572,1.8546,1.8536,1.8516,1.8493,1.8484,1.8458,1.8427,1.8411,1.8403,1.8386,1.8392,1.8392,1.8394,1.8397,1.8339,1.84,1.8399,1.8399,1.8399,1.8399,0,1.8717,1.8697,1.8688,1.8663,1.8654,1.8626,1.8604,1.8598,1.859,1.8569,1.8556,1.8542,1.8528,1.8496,1.8478,1.8477,1.8462,1.8474,1.8472,1.8468,1.8415,1.8412,1.8486,1.8486,1.8486,1.8486,1.8486,1.8486,1.8755,1.8757,1.8735,1.8727,1.8707,1.8697,1.8687,1.8671,1.8653,1.8639,1.8627,1.8606,1.8579,1.8559,1.8544,1.8535,1.8529,1.8544,1.853,1.8481,1.8472,1.8464,1.8461,1.8544,1.8544,1.8584,1.8584,1.8584]}]]